ASA634 KONT-PAJN

Flight info

Callsign ASA634
Flight time N/A
Altitude 36000
Route SNSHN5 EHF DCT CZQ DCT OED/N0455F380 J1 DREWS DCT ONP DCT SEFIX DCT PR DCT HOODS DCT NIMLE DCT
Aircraft B737/M-SDE2E3FGHIRWXY/LB1

Departure

Time 2026-04-29 17:37
Airport Ontario International Airport (KONT)

Arrival

Time N/A
Airport Juneau International Airport (PAJN)
Time Latitude Longitude Altitude Speed Heading
2026-04-29 17:24 34.05977 -117.59776 943 ft 0 kts
2026-04-29 17:28 34.05966 -117.59776 942 ft 4 kts
2026-04-29 17:28 34.05939 -117.59776 943 ft 4 kts
2026-04-29 17:28 34.05914 -117.59784 942 ft 4 kts 34°
2026-04-29 17:28 34.05898 -117.59806 943 ft 4 kts 84°
2026-04-29 17:29 34.05897 -117.59817 943 ft 0 kts 90°
2026-04-29 17:31 34.05897 -117.59812 943 ft 3 kts 90°
2026-04-29 17:32 34.05897 -117.59739 943 ft 14 kts 90°
2026-04-29 17:32 34.05897 -117.59620 943 ft 14 kts 90°
2026-04-29 17:32 34.05897 -117.59599 943 ft 0 kts 90°
2026-04-29 17:32 34.05896 -117.59596 943 ft 2 kts 115°
2026-04-29 17:33 34.05843 -117.59580 943 ft 13 kts 178°
2026-04-29 17:33 34.05798 -117.59506 942 ft 12 kts 90°
2026-04-29 17:33 34.05799 -117.59409 942 ft 13 kts 91°
2026-04-29 17:33 34.05798 -117.59270 943 ft 18 kts 90°
2026-04-29 17:34 34.05799 -117.59124 944 ft 16 kts 90°
2026-04-29 17:34 34.05797 -117.58999 944 ft 14 kts 91°
2026-04-29 17:34 34.05797 -117.58897 944 ft 11 kts 89°
2026-04-29 17:34 34.05799 -117.58792 945 ft 15 kts 89°
2026-04-29 17:35 34.05802 -117.58630 945 ft 14 kts 90°
2026-04-29 17:35 34.05802 -117.58442 944 ft 13 kts 90°
2026-04-29 17:35 34.05799 -117.58341 944 ft 12 kts 94°
2026-04-29 17:36 34.05754 -117.58271 944 ft 12 kts 171°
2026-04-29 17:36 34.05692 -117.58304 945 ft 9 kts 253°
2026-04-29 17:36 34.05688 -117.58485 946 ft 53 kts 269°
2026-04-29 17:36 34.05691 -117.59227 942 ft 122 kts 270°
2026-04-29 17:37 34.05699 -117.60483 986 ft 173 kts 270°
2026-04-29 17:37 34.05724 -117.61980 1686 ft 176 kts 271°
2026-04-29 17:37 34.05740 -117.63481 2458 ft 181 kts 270°
2026-04-29 17:37 34.05758 -117.65058 3004 ft 201 kts 271°
2026-04-29 17:38 34.05790 -117.66866 3243 ft 230 kts 271°
2026-04-29 17:38 34.05835 -117.68899 3530 ft 258 kts 272°
2026-04-29 17:38 34.05954 -117.71122 4183 ft 270 kts 282°
2026-04-29 17:38 34.06470 -117.73316 5115 ft 274 kts 289°
2026-04-29 17:39 34.07035 -117.75520 6080 ft 275 kts 288°
2026-04-29 17:39 34.07590 -117.77726 7066 ft 275 kts 289°
2026-04-29 17:39 34.08526 -117.79698 8017 ft 272 kts 310°
2026-04-29 17:39 34.09811 -117.81413 8838 ft 279 kts 311°
2026-04-29 17:40 34.11141 -117.83144 9699 ft 283 kts 311°
2026-04-29 17:40 34.12451 -117.84927 10500 ft 287 kts 306°
2026-04-29 17:40 34.13687 -117.86937 10782 ft 311 kts 303°
2026-04-29 17:40 34.14974 -117.89163 10983 ft 336 kts 303°
2026-04-29 17:41 34.16349 -117.91559 11148 ft 359 kts 303°
2026-04-29 17:41 34.17808 -117.94085 11553 ft 372 kts 303°
2026-04-29 17:41 34.19308 -117.96657 12273 ft 375 kts 303°
2026-04-29 17:41 34.20817 -117.99223 13101 ft 375 kts 303°
2026-04-29 17:42 34.22337 -118.01807 13799 ft 380 kts 303°
2026-04-29 17:42 34.23875 -118.04420 14430 ft 383 kts 303°
2026-04-29 17:42 34.25428 -118.07052 15038 ft 386 kts 303°
2026-04-29 17:42 34.26991 -118.09717 15599 ft 392 kts 303°
2026-04-29 17:43 34.28612 -118.12378 16299 ft 394 kts 306°
2026-04-29 17:43 34.30407 -118.14879 17087 ft 394 kts 309°
2026-04-29 17:43 34.32247 -118.17287 17751 ft 396 kts 309°
2026-04-29 17:43 34.33523 -118.18941 18131 ft 400 kts 309°
2026-04-29 17:44 34.36056 -118.22222 18808 ft 405 kts 309°
2026-04-29 17:44 34.37980 -118.24739 19330 ft 409 kts 309°
2026-04-29 17:44 34.39906 -118.27291 19829 ft 412 kts 309°
2026-04-29 17:44 34.41840 -118.29873 20295 ft 416 kts 309°
2026-04-29 17:45 34.43788 -118.32484 20770 ft 419 kts 309°
2026-04-29 17:45 34.45112 -118.34262 21100 ft 421 kts 309°
2026-04-29 17:45 34.47079 -118.36903 21602 ft 423 kts 309°
2026-04-29 17:45 34.49057 -118.39559 22091 ft 426 kts 309°
2026-04-29 17:46 34.51051 -118.42237 22530 ft 429 kts 309°
2026-04-29 17:46 34.53057 -118.44937 22980 ft 432 kts 309°
2026-04-29 17:46 34.55225 -118.47494 23406 ft 440 kts 320°
2026-04-29 17:46 34.57868 -118.49431 23817 ft 447 kts 328°
2026-04-29 17:47 34.60616 -118.51211 24181 ft 449 kts 328°
2026-04-29 17:47 34.63394 -118.52978 24549 ft 452 kts 329°
2026-04-29 17:47 34.66181 -118.54756 24950 ft 453 kts 328°
2026-04-29 17:47 34.68970 -118.56556 25340 ft 455 kts 328°
2026-04-29 17:48 34.71726 -118.58353 25676 ft 457 kts 328°
2026-04-29 17:48 34.74527 -118.60196 26011 ft 459 kts 328°
2026-04-29 17:48 34.77341 -118.62057 26317 ft 461 kts 328°
2026-04-29 17:48 34.80166 -118.63931 26627 ft 464 kts 328°
2026-04-29 17:49 34.83003 -118.65816 26933 ft 466 kts 328°
2026-04-29 17:49 34.85855 -118.67712 27214 ft 468 kts 328°
2026-04-29 17:49 34.88720 -118.69617 27516 ft 470 kts 328°
2026-04-29 17:49 34.91590 -118.71526 27853 ft 471 kts 328°
2026-04-29 17:50 34.94460 -118.73435 28305 ft 469 kts 328°
2026-04-29 17:50 34.97317 -118.75338 28797 ft 467 kts 328°
2026-04-29 17:50 35.00165 -118.77236 29262 ft 466 kts 328°
2026-04-29 17:50 35.03010 -118.79133 29719 ft 466 kts 328°
2026-04-29 17:51 35.05820 -118.81009 30480 ft 457 kts 328°
2026-04-29 17:51 35.08601 -118.82865 30935 ft 455 kts 328°
2026-04-29 17:51 35.11387 -118.84730 31156 ft 459 kts 328°
2026-04-29 17:51 35.14199 -118.86616 31387 ft 461 kts 327°
2026-04-29 17:52 35.17009 -118.88499 31752 ft 460 kts 327°
2026-04-29 17:52 35.18866 -118.89744 32035 ft 459 kts 327°
2026-04-29 17:52 35.22604 -118.92250 32570 ft 457 kts 327°
2026-04-29 17:52 35.25387 -118.94121 32986 ft 455 kts 328°
2026-04-29 17:53 35.28156 -118.95980 33375 ft 453 kts 328°
2026-04-29 17:53 35.30922 -118.97842 33648 ft 454 kts 329°
2026-04-29 17:53 35.33697 -118.99710 33908 ft 455 kts 329°
2026-04-29 17:53 35.36473 -119.01579 34200 ft 455 kts 329°
2026-04-29 17:54 35.39244 -119.03447 34480 ft 454 kts 328°
2026-04-29 17:54 35.42011 -119.05314 34763 ft 453 kts 329°
2026-04-29 17:54 35.44768 -119.07176 35091 ft 451 kts 329°
2026-04-29 17:54 35.47506 -119.09025 35388 ft 449 kts 328°
2026-04-29 17:55 35.50283 -119.10787 35626 ft 451 kts 332°
2026-04-29 17:55 35.53162 -119.12330 35825 ft 453 kts 334°
2026-04-29 17:55 35.56092 -119.13768 36036 ft 453 kts 335°
2026-04-29 17:56 35.62000 -119.16600 36159 ft 456 kts 335°
2026-04-29 17:56 35.67836 -119.19466 36137 ft 446 kts 335°
2026-04-29 17:57 35.73568 -119.22350 36143 ft 445 kts 335°
2026-04-29 17:57 35.79284 -119.25253 36135 ft 444 kts 335°
2026-04-29 17:58 35.84992 -119.28159 36143 ft 443 kts 336°
2026-04-29 17:58 35.90684 -119.31055 36139 ft 442 kts 336°
2026-04-29 17:59 35.96362 -119.33949 36140 ft 441 kts 336°
2026-04-29 17:59 36.01984 -119.36818 36154 ft 439 kts 336°
2026-04-29 18:00 36.07622 -119.39700 36141 ft 437 kts 335°
2026-04-29 18:00 36.13235 -119.42574 36143 ft 436 kts 335°
2026-04-29 18:01 36.18828 -119.45442 36158 ft 435 kts 336°
2026-04-29 18:01 36.24409 -119.48309 36137 ft 434 kts 336°
2026-04-29 18:02 36.29981 -119.51174 36139 ft 433 kts 336°
2026-04-29 18:02 36.35544 -119.54041 36124 ft 433 kts 336°
2026-04-29 18:03 36.41103 -119.56917 36138 ft 433 kts 336°
2026-04-29 18:03 36.46668 -119.59788 36140 ft 433 kts 336°
2026-04-29 18:04 36.52232 -119.62666 36136 ft 433 kts 336°
2026-04-29 18:04 36.57796 -119.65550 36158 ft 433 kts 336°
2026-04-29 18:05 36.63361 -119.68440 36136 ft 433 kts 336°
2026-04-29 18:05 36.68917 -119.71329 36138 ft 433 kts 336°
2026-04-29 18:06 36.74471 -119.74222 36136 ft 432 kts 336°
2026-04-29 18:06 36.80020 -119.77118 36138 ft 432 kts 336°
2026-04-29 18:07 36.85561 -119.80013 36141 ft 432 kts 336°
2026-04-29 18:07 36.91109 -119.82898 36119 ft 432 kts 337°
2026-04-29 18:08 36.96674 -119.85726 36141 ft 432 kts 337°
2026-04-29 18:08 37.02239 -119.88544 36140 ft 431 kts 337°
2026-04-29 18:09 37.07798 -119.91372 36136 ft 431 kts 337°
2026-04-29 18:09 37.13349 -119.94205 36161 ft 430 kts 337°
2026-04-29 18:10 37.18889 -119.97040 36143 ft 430 kts 337°
2026-04-29 18:10 37.24379 -119.99854 36146 ft 429 kts 337°
2026-04-29 18:11 37.29896 -120.02687 36146 ft 428 kts 337°
2026-04-29 18:11 37.35406 -120.05519 36150 ft 427 kts 337°
2026-04-29 18:12 37.40904 -120.08351 36131 ft 427 kts 337°
2026-04-29 18:12 37.46394 -120.11182 36139 ft 426 kts 337°
2026-04-29 18:13 37.51878 -120.14016 36139 ft 426 kts 337°
2026-04-29 18:13 37.57363 -120.16854 36140 ft 426 kts 337°
2026-04-29 18:14 37.62850 -120.19697 36133 ft 426 kts 337°
2026-04-29 18:14 37.68333 -120.22543 36149 ft 426 kts 337°
2026-04-29 18:15 37.73811 -120.25390 36136 ft 426 kts 337°
2026-04-29 18:15 37.79284 -120.28241 36126 ft 425 kts 337°
2026-04-29 18:16 37.84744 -120.31088 36155 ft 424 kts 338°
2026-04-29 18:16 37.90150 -120.33913 36141 ft 422 kts 337°
2026-04-29 18:17 37.95574 -120.36750 36125 ft 421 kts 337°
2026-04-29 18:17 38.00981 -120.39584 36133 ft 420 kts 337°
2026-04-29 18:18 38.06379 -120.42418 36134 ft 420 kts 338°
2026-04-29 18:18 38.11773 -120.45254 36140 ft 419 kts 338°
2026-04-29 18:19 38.17161 -120.48090 36128 ft 419 kts 338°
2026-04-29 18:19 38.22542 -120.50916 36152 ft 418 kts 338°
2026-04-29 18:20 38.27910 -120.53760 36139 ft 418 kts 338°
2026-04-29 18:20 38.33273 -120.56602 36142 ft 418 kts 338°
2026-04-29 18:21 38.38637 -120.59444 36152 ft 417 kts 338°
2026-04-29 18:21 38.43983 -120.62276 36157 ft 415 kts 338°
2026-04-29 18:22 38.49315 -120.65115 36149 ft 415 kts 338°
2026-04-29 18:22 38.54649 -120.67959 36133 ft 416 kts 338°
2026-04-29 18:23 38.59984 -120.70804 36136 ft 415 kts 338°
2026-04-29 18:23 38.65316 -120.73650 36135 ft 415 kts 337°
2026-04-29 18:24 38.70653 -120.76405 36157 ft 414 kts 337°
2026-04-29 18:24 38.75951 -120.79293 36165 ft 414 kts 337°
2026-04-29 18:25 38.81249 -120.82176 36170 ft 413 kts 337°
2026-04-29 18:25 38.86549 -120.85041 36151 ft 413 kts 337°
2026-04-29 18:26 38.91847 -120.87898 36154 ft 413 kts 338°
2026-04-29 18:26 38.97139 -120.90757 36120 ft 412 kts 338°
2026-04-29 18:27 39.02420 -120.93607 36137 ft 411 kts 337°
2026-04-29 18:27 39.07690 -120.96458 36137 ft 411 kts 338°
2026-04-29 18:28 39.12949 -120.99309 36154 ft 410 kts 338°
2026-04-29 18:28 39.18205 -121.02163 36160 ft 410 kts 338°
2026-04-29 18:29 39.23422 -121.05000 36159 ft 410 kts 338°
2026-04-29 18:29 39.28675 -121.07862 36165 ft 409 kts 338°
2026-04-29 18:30 39.33917 -121.10722 36152 ft 409 kts 337°
2026-04-29 18:30 39.39149 -121.13583 36130 ft 408 kts 337°
2026-04-29 18:31 39.44383 -121.16454 36121 ft 408 kts 337°
2026-04-29 18:31 39.49608 -121.19315 36124 ft 407 kts 337°
2026-04-29 18:32 39.54823 -121.22177 36141 ft 407 kts 337°
2026-04-29 18:32 39.62622 -121.26470 36139 ft 406 kts 338°
2026-04-29 18:33 39.66946 -121.28852 36117 ft 406 kts 338°
2026-04-29 18:33 39.72131 -121.31735 36154 ft 405 kts 337°
2026-04-29 18:34 39.76453 -121.34117 36158 ft 407 kts 337°
2026-04-29 18:34 39.82543 -121.37483 36146 ft 407 kts 337°
2026-04-29 18:35 39.87752 -121.40384 36178 ft 408 kts 336°
2026-04-29 18:35 39.92960 -121.43330 36149 ft 408 kts 338°
2026-04-29 18:36 39.98177 -121.46200 36143 ft 406 kts 338°
2026-04-29 18:36 40.03372 -121.49078 36153 ft 405 kts 337°
2026-04-29 18:37 40.08558 -121.51966 36146 ft 405 kts 337°
2026-04-29 18:37 40.13737 -121.54863 36143 ft 405 kts 338°
2026-04-29 18:38 40.18915 -121.57766 36136 ft 405 kts 337°
2026-04-29 18:38 40.24094 -121.60662 36077 ft 404 kts 341°
2026-04-29 18:39 40.29283 -121.63301 36216 ft 401 kts 335°
2026-04-29 18:39 40.34365 -121.66428 36155 ft 405 kts 336°
2026-04-29 18:40 40.39540 -121.69405 36157 ft 407 kts 337°
2026-04-29 18:40 40.44749 -121.72339 36136 ft 408 kts 337°
2026-04-29 18:41 40.55131 -121.78205 36131 ft 407 kts 337°
2026-04-29 18:42 40.60326 -121.81156 36131 ft 407 kts 337°
2026-04-29 18:42 40.65518 -121.84111 36121 ft 407 kts 337°
2026-04-29 18:43 40.70711 -121.87071 36119 ft 407 kts 337°
2026-04-29 18:43 40.75940 -121.90056 36135 ft 407 kts 337°
2026-04-29 18:44 40.81120 -121.93020 36129 ft 405 kts 337°
2026-04-29 18:44 40.86251 -121.95960 36129 ft 404 kts 337°
2026-04-29 18:45 40.91406 -121.98918 36134 ft 403 kts 337°
2026-04-29 18:45 40.96549 -122.01882 36136 ft 403 kts 337°
2026-04-29 18:46 41.01694 -122.04849 36145 ft 403 kts 336°
2026-04-29 18:46 41.06835 -122.07812 36140 ft 403 kts 337°
2026-04-29 18:47 41.11973 -122.10793 36124 ft 404 kts 338°
2026-04-29 18:47 41.17165 -122.13593 36156 ft 403 kts 336°
2026-04-29 18:48 41.22283 -122.16654 36155 ft 403 kts 336°
2026-04-29 18:48 41.27408 -122.19699 36160 ft 404 kts 336°
2026-04-29 18:49 41.32543 -122.22710 36195 ft 404 kts 336°
2026-04-29 18:49 41.37690 -122.25715 36188 ft 404 kts 336°
2026-04-29 18:50 41.42839 -122.28720 36178 ft 404 kts 336°
2026-04-29 18:50 41.47989 -122.31731 36174 ft 404 kts 336°